When you browse on this site, cookies collect data to enhance your experience and personalize the content and advertising you see.
Visit our Privacy Policy to learn more. By continuing to use the site, you agree to this use of cookies and data.
  • In Romania
  • List of Countries
  • For 7 days
  • Water Temperature
  • Satellite Maps
  • Weather Map
  • Weather Widgets
  • user-avatar
    Login

    Hourly Weather Dęblin

    Today, 22 May, Wednesday

    Time Temperature Precipitation Wind Pressure Humidity
    00:00 +14°C° 0 mm 5 mps 742 mmHg 86%
    01:00 +14°C° 0 mm 6 mps 741 mmHg 87%
    02:00 +14°C° 0.1 mm 5 mps 742 mmHg 88%
    03:00 +14°C° 0.1 mm 5 mps 742 mmHg 89%
    04:00 +14°C° 0.1 mm 5 mps 742 mmHg 89%
    05:00 +14°C° 0.1 mm 5 mps 742 mmHg 90%
    06:00 +14°C° 0.1 mm 4 mps 742 mmHg 90%
    07:00 +14°C° 0 mm 4 mps 742 mmHg 90%
    08:00 +15°C° 0.3 mm 4 mps 742 mmHg 87%
    09:00 +16°C° 0.3 mm 5 mps 742 mmHg 85%
    10:00 +17°C° 0.3 mm 5 mps 742 mmHg 82%
    11:00 +17°C° 0.5 mm 5 mps 742 mmHg 80%
    12:00 +19°C° 0.5 mm 4 mps 743 mmHg 78%
    13:00 +20°C° 0.5 mm 4 mps 743 mmHg 76%
    14:00 +20°C° 0.5 mm 4 mps 742 mmHg 75%
    15:00 +20°C° 0.5 mm 4 mps 742 mmHg 74%
    16:00 +20°C° 0.5 mm 3 mps 742 mmHg 74%
    17:00 +19°C° 0.2 mm 3 mps 743 mmHg 78%
    18:00 +18°C° 0.2 mm 3 mps 743 mmHg 83%
    19:00 +17°C° 0.2 mm 2 mps 743 mmHg 88%
    20:00 +16°C° 0 mm 2 mps 743 mmHg 90%
    21:00 +15°C° 0 mm 1 mps 744 mmHg 92%
    22:00 +14°C° 0 mm 1 mps 744 mmHg 94%
    23:00 +14°C° 0 mm 1 mps 744 mmHg 94%

    Tomorrow, 23 May, Thursday

    Time Temperature Precipitation Wind Pressure Humidity
    00:00 +13°C° 0 mm 1 mps 745 mmHg 94%
    01:00 +13°C° 0 mm 1 mps 745 mmHg 95%
    02:00 +13°C° 0 mm 1 mps 745 mmHg 95%
    03:00 +13°C° 0 mm 1 mps 745 mmHg 95%
    04:00 +13°C° 0 mm 1 mps 745 mmHg 95%
    05:00 +14°C° 0 mm 1 mps 746 mmHg 92%
    06:00 +16°C° 0 mm 1 mps 746 mmHg 88%
    07:00 +18°C° 0 mm 1 mps 746 mmHg 84%
    08:00 +19°C° 0.4 mm 1 mps 747 mmHg 81%
    09:00 +19°C° 0.4 mm 2 mps 747 mmHg 78%
    10:00 +20°C° 0.4 mm 2 mps 747 mmHg 76%
    11:00 +21°C° 0.7 mm 2 mps 747 mmHg 73%
    12:00 +21°C° 0.7 mm 2 mps 747 mmHg 70%
    13:00 +23°C° 0.7 mm 2 mps 747 mmHg 68%
    14:00 +22°C° 2.1 mm 3 mps 747 mmHg 71%
    15:00 +21°C° 2.1 mm 4 mps 747 mmHg 75%
    16:00 +21°C° 2.1 mm 4 mps 747 mmHg 79%
    17:00 +20°C° 2.1 mm 4 mps 747 mmHg 82%
    18:00 +19°C° 2.1 mm 5 mps 747 mmHg 86%
    19:00 +16°C° 2.1 mm 5 mps 748 mmHg 89%
    20:00 +16°C° 0.7 mm 5 mps 748 mmHg 91%
    21:00 +15°C° 0.7 mm 5 mps 748 mmHg 92%
    22:00 +14°C° 0.7 mm 5 mps 748 mmHg 94%
    23:00 +14°C° 0.1 mm 5 mps 748 mmHg 94%

    Day after tomorrow, 24 May, Friday

    Time Temperature Precipitation Wind Pressure Humidity
    00:00 +13°C° 0.1 mm 5 mps 748 mmHg 95%
    01:00 +12°C° 0.1 mm 5 mps 748 mmHg 95%
    02:00 +12°C° 0.1 mm 4 mps 749 mmHg 94%
    03:00 +12°C° 0.1 mm 4 mps 749 mmHg 93%
    04:00 +11°C° 0.1 mm 4 mps 749 mmHg 92%
    05:00 +12°C° 0 mm 3 mps 749 mmHg 89%
    06:00 +12°C° 0 mm 3 mps 749 mmHg 86%
    07:00 +13°C° 0 mm 3 mps 749 mmHg 84%
    08:00 +14°C° 0 mm 3 mps 749 mmHg 79%
    09:00 +17°C° 0 mm 3 mps 749 mmHg 74%
    10:00 +18°C° 0 mm 4 mps 749 mmHg 69%
    11:00 +19°C° 0 mm 4 mps 749 mmHg 67%
    12:00 +20°C° 0 mm 4 mps 749 mmHg 66%
    13:00 +21°C° 0 mm 4 mps 749 mmHg 64%
    14:00 +21°C° 0 mm 4 mps 748 mmHg 64%
    15:00 +21°C° 0 mm 4 mps 748 mmHg 64%
    16:00 +21°C° 0 mm 4 mps 748 mmHg 65%
    17:00 +20°C° 0 mm 3 mps 748 mmHg 69%
    18:00 +19°C° 0 mm 3 mps 748 mmHg 73%
    19:00 +18°C° 0 mm 3 mps 748 mmHg 78%
    20:00 +17°C° 0 mm 2 mps 748 mmHg 79%
    21:00 +16°C° 0 mm 2 mps 748 mmHg 80%
    22:00 +15°C° 0 mm 2 mps 748 mmHg 82%
    23:00 +14°C° 0 mm 2 mps 748 mmHg 85%

    25 May, Saturday

    Time Temperature Precipitation Wind Pressure Humidity
    00:00 +13°C° 0 mm 2 mps 748 mmHg 88%
    01:00 +12°C° 0 mm 2 mps 748 mmHg 91%
    02:00 +12°C° 0 mm 2 mps 748 mmHg 90%
    03:00 +12°C° 0 mm 1 mps 748 mmHg 89%
    04:00 +11°C° 0 mm 1 mps 748 mmHg 89%
    05:00 +13°C° 0 mm 2 mps 748 mmHg 83%
    06:00 +15°C° 0 mm 2 mps 748 mmHg 78%
    07:00 +17°C° 0 mm 2 mps 748 mmHg 72%
    08:00 +18°C° 0.1 mm 2 mps 748 mmHg 68%
    09:00 +20°C° 0.1 mm 3 mps 748 mmHg 63%
    10:00 +21°C° 0.1 mm 3 mps 748 mmHg 59%
    11:00 +21°C° 0.1 mm 4 mps 747 mmHg 57%
    12:00 +22°C° 0.1 mm 4 mps 747 mmHg 54%
    13:00 +23°C° 0.1 mm 4 mps 747 mmHg 52%
    14:00 +22°C° 0.2 mm 4 mps 747 mmHg 56%
    15:00 +21°C° 0.2 mm 4 mps 747 mmHg 60%
    16:00 +21°C° 0.2 mm 5 mps 747 mmHg 64%
    17:00 +20°C° 0 mm 4 mps 747 mmHg 70%
    18:00 +19°C° 0 mm 3 mps 747 mmHg 75%
    19:00 +17°C° 0 mm 3 mps 747 mmHg 80%
    20:00 +16°C° 0 mm 3 mps 747 mmHg 82%
    21:00 +14°C° 0 mm 3 mps 747 mmHg 85%
    22:00 +14°C° 0 mm 2 mps 748 mmHg 87%
    23:00 +12°C° 0 mm 3 mps 748 mmHg 89%

    26 May, Sunday

    Time Temperature Precipitation Wind Pressure Humidity
    00:00 +12°C° 0 mm 3 mps 748 mmHg 90%
    01:00 +11°C° 0 mm 3 mps 748 mmHg 92%
    02:00 +10°C° 0 mm 3 mps 748 mmHg 93%
    03:00 +10°C° 0 mm 2 mps 748 mmHg 94%
    04:00 +9°C° 0 mm 2 mps 748 mmHg 94%
    05:00 +11°C° 0 mm 3 mps 748 mmHg 87%
    06:00 +12°C° 0 mm 3 mps 748 mmHg 80%
    07:00 +14°C° 0 mm 4 mps 748 mmHg 72%
    08:00 +15°C° 0 mm 4 mps 748 mmHg 69%
    09:00 +16°C° 0 mm 5 mps 747 mmHg 65%
    10:00 +17°C° 0 mm 6 mps 747 mmHg 62%
    11:00 +17°C° 0 mm 6 mps 747 mmHg 62%
    12:00 +17°C° 0 mm 6 mps 747 mmHg 62%
    13:00 +17°C° 0 mm 6 mps 746 mmHg 62%
    14:00 +16°C° 0 mm 6 mps 746 mmHg 63%
    15:00 +16°C° 0 mm 6 mps 746 mmHg 63%
    16:00 +15°C° 0 mm 5 mps 746 mmHg 64%
    17:00 +14°C° 0 mm 5 mps 746 mmHg 67%
    18:00 +13°C° 0 mm 4 mps 746 mmHg 70%
    19:00 +12°C° 0 mm 4 mps 747 mmHg 72%
    20:00 +11°C° 0 mm 4 mps 747 mmHg 76%
    21:00 +10°C° 0 mm 3 mps 747 mmHg 79%
    22:00 +9°C° 0 mm 3 mps 748 mmHg 83%
    23:00 +8°C° 0 mm 3 mps 748 mmHg 83%

    27 May, Monday

    Time Temperature Precipitation Wind Pressure Humidity
    00:00 +8°C° 0 mm 3 mps 748 mmHg 83%
    01:00 +7°C° 0 mm 3 mps 749 mmHg 83%
    02:00 +7°C° 0 mm 3 mps 749 mmHg 86%
    03:00 +7°C° 0 mm 3 mps 749 mmHg 88%
    04:00 +7°C° 0 mm 3 mps 749 mmHg 90%
    05:00 +7°C° 0 mm 4 mps 749 mmHg 83%
    06:00 +10°C° 0 mm 4 mps 749 mmHg 76%
    07:00 +12°C° 0 mm 4 mps 749 mmHg 68%
    08:00 +13°C° 0 mm 4 mps 749 mmHg 64%
    09:00 +14°C° 0 mm 4 mps 749 mmHg 60%
    10:00 +17°C° 0 mm 4 mps 749 mmHg 56%
    11:00 +18°C° 0 mm 4 mps 749 mmHg 52%
    12:00 +19°C° 0 mm 4 mps 749 mmHg 49%
    13:00 +20°C° 0 mm 3 mps 749 mmHg 45%
    14:00 +20°C° 0 mm 3 mps 748 mmHg 45%
    15:00 +20°C° 0 mm 2 mps 748 mmHg 45%
    16:00 +22°C° 0 mm 1 mps 747 mmHg 46%
    17:00 +19°C° 0 mm 2 mps 747 mmHg 52%
    18:00 +18°C° 0 mm 2 mps 747 mmHg 59%
    19:00 +17°C° 0 mm 2 mps 746 mmHg 66%
    20:00 +16°C° 0 mm 2 mps 746 mmHg 69%
    21:00 +15°C° 0 mm 2 mps 746 mmHg 72%
    22:00 +13°C° 0 mm 3 mps 746 mmHg 75%
    23:00 +13°C° 0 mm 3 mps 745 mmHg 76%
    Show more